Weather Roundup
Issued by NWS

Home | Current Version | Previous Version | Graphics & Text | Print | Product List | Glossary Off
Versions: 1 2 3 4 5 6 7 8 9 10 11 12 13 14 15 16 17 18 19 20 21 22 23 24 25 26 27 28 29 30 31 32 33 34 35 36 37 38 39 40 41 42 43 44 45 46 47 48 49 50

790
NZUS93 KARX 031859
HRRWXR

CURRENT HOURLY OBSERVATIONS ACROSS
MUCH OF THE UPPER MISSISSIPPI VALLEY
NATIONAL WEATHER SERVICE LA CROSSE WI
200 PM CDT TUE MAY 03 2016


...SOUTHEAST MINNESOTA...


CITY           SKY/WX    TMP DP  RH WIND       PRES   REMARKS
ROCHESTER      CLOUDY    66  39  37 W22G30    29.84F
ROCHESTER/MAYO FAIR      65  35  31 W20G31    29.82F
WINONA         PTSUNNY   70  34  26 NW12G22   29.80F
AUSTIN         MOSUNNY   64  36  34 W16       29.86F
ALBERT LEA     MOSUNNY   66  36  32 W13       29.86F
DODGE CENTER   CLOUDY    66  36  32 W18G31    29.84F
PRESTON        PTSUNNY   64  36  35 W17G25    29.85F
OWATONNA       MOSUNNY   68  34  28 W18       29.84F
FARIBAULT      NOT AVBL
$$

...ELSEWHERE IN MINNESOTA...


CITY           SKY/WX    TMP DP  RH WIND       PRES   REMARKS
MINNEAPOLIS    PTSUNNY   69  39  33 W16G31    29.78F
INTNL FALLS    MOSUNNY   62  31  31 N18G26    29.75R
DULUTH         PTSUNNY   66  36  32 NW15G26   29.66F
RED WING       PTSUNNY   70  34  26 W21G26    29.78F
REDWOOD FALLS  MOSUNNY   70  42  36 W18G25    29.83F
MANKATO        MOSUNNY   66  36  32 W20G26    29.84F
WORTHINGTON    PTSUNNY   64  45  49 W25       29.90F
FAIRMONT       MOSUNNY   66  41  39 W18G26    29.87F
$$

...SOUTHWEST WISCONSIN...


CITY           SKY/WX    TMP DP  RH WIND       PRES   REMARKS
LA CROSSE      PTSUNNY   72  38  29 W10G23    29.80F
PRAIRIE DU CHI PTSUNNY   67  35  31 W10G21    29.86F
BOSCOBEL       LGT RAIN  68  37  32 W16G22    29.84F
LONE ROCK      NOT AVBL
PLATTEVILLE    PTSUNNY   65  38  37 W16G22    29.88F
FORT MC COY    CLOUDY    67  34  30 W10G21    29.81F
MAUSTON-NEW LI CLOUDY    67  35  31 W14       29.80F
VIROQUA        MOCLDY    66  35  31 W16G23    29.84F
WIS DELLS      PTSUNNY   68  33  27 W16       29.81F
$$

...ELSEWHERE IN WISCONSIN...


CITY           SKY/WX    TMP DP  RH WIND       PRES   REMARKS
MILWAUKEE      CLOUDY    65  32  29 W10G22    29.82F
MADISON        PTSUNNY   67  36  31 W12G18    29.82F
GREEN BAY      CLOUDY    68  35  29 W18G28    29.72F
EAU CLAIRE     NOT AVBL
BLACK RVR FLS  FAIR      69  31  24 W17       29.79F
MEDFORD        CLOUDY    64  35  35 W18G26    29.74F
WAUSAU         PTSUNNY   69  32  25 W21G29    29.70F
WIS RAPIDS     PTSUNNY   68  29  23 W15G22    29.77F
MARSHFIELD     PTSUNNY   67  30  25 W17G24    29.74F
RICE LAKE      CLOUDY    68  32  26 W22G30    29.76F
$$

...NORTHEAST IOWA...


CITY           SKY/WX    TMP DP  RH WIND       PRES   REMARKS
WATERLOO       PTSUNNY   66  38  35 W13G26    29.90F
DUBUQUE        MOSUNNY   65  40  39 W17       29.89F
DECORAH        PTSUNNY   66  37  34 W12G23    29.86F
MASON CITY     CLOUDY    67  41  38 W14G28    29.89F
CHARLES CITY   CLOUDY    66  37  34 W21       29.90F
OELWEIN        MOSUNNY   64  39  39 W22G29    29.91F
$$

...ELSEWHERE IN IOWA...


CITY           SKY/WX    TMP DP  RH WIND       PRES   REMARKS
DES MOINES     PTSUNNY   69  37  30 W12G23    29.96F
IOWA CITY      MOSUNNY   67  42  40 W15       29.94F
FORT DODGE     PTSUNNY   66  45  45 W17G23    29.93F
MARSHALLTOWN   MOSUNNY   66  40  38 W14       29.92F
CEDAR RAPIDS   MOSUNNY   66  44  45 W14       29.91F
$$

...NORTHERN ILLINOIS...


CITY           SKY/WX    TMP DP  RH WIND       PRES   REMARKS
CHICAGO-OHARE  PTSUNNY   64  38  38 W10       29.86F
CHICAGO-MIDWAY PTSUNNY   66  37  34 W10       29.87F
MOLINE         PTSUNNY   68  38  33 W15G23    29.91F
ROCKFORD       PTSUNNY   66  39  37 W15G22    29.89F
PEORIA         CLOUDY    63  37  38 NW8       29.94F
$$

NOTE: "FAIR" INDICATES FEW OR NO CLOUDS BELOW 12,000 FEET WITH NO
SIGNIFICANT WEATHER AND/OR OBSTRUCTIONS TO VISIBILITY. WIND
SPEEDS ARE IN MILES-PER-HOUR.




USA.gov is the U.S. government's official web portal to all federal, state and local government web resources and services.